Location: Gleizolles
(44.4833°N, 6.7667°E)
Time: 05:40:18
(UTC+00:00)

Transit 4A - Pass Details

Date: 25 June 2024
Orbit: 870 x 973 km, 66.8° (Epoch: 14 July)

Event Time Altitude Azimuth Distance (km) Brightness Sun altitude
Rises 22:36:15 0° 250° (WSW) 3,458 10.8 -20.8°
Reaches altitude 10° 22:39:10 10° 263° (W) 2,518 10.2 -20.9°
Maximum altitude 22:43:57 26° 318° (NW) 1,657 9.8 -21.1°
Drops below altitude 10° 22:48:46 10° 14° (NNE) 2,533 11.1 -21.3°
Sets 22:51:43 0° 27° (NNE) 3,483 11.7 -21.4°
